星链-35354(STARLINK-35354)

导读

STARLINK-35354是美国SpaceX星链互联网项目的低轨通信卫星,于2025年11月15日发射升空,是星链星座的组成部分。星链项目旨在通过部署近地轨道卫星群,为全球尤其是偏远地区提供高速低延迟宽带互联网服务。该卫星运行在近地轨道,依托星链的激光通信技术,支撑全球互联网络覆盖,助力提升星链系统服务能力,扩展项目的用户接入范围与网络稳定性。

Basic Information
目录编号:
66477
目录名称:
STARLINK-35354
国际标识:
2025-262X
轨道中心:
EARTH
卫星名称:
星链-35354
卫星全名:
星链-35354(STARLINK-35354)
卫星状态:
在轨 (已飞行293 天)
发射日期:
2025-11-15 UTC
国别 :
美国 (US)
星等 :
--
Orbit Information
数据来源 国际轨道数据
星历时间: 2026-09-04T00:54:32+0800
23小时前
查看轨道信息
半长轴: 6861.173km
偏心率: 0.000204
轨道倾角: 42.999°
近地点辐角 281.527°
升交点赤经 10.642°
平近点角 78.535°
近地点: 481.636km
远地点: 484.436km
周期: 94.266分钟
每日圈数: 15.275846
Detailed Information
固有亮度:
5
最大亮度:
2.5
卫星平台:
Starlink V1.0
覆盖范围:
全球
运营商:
太空探索技术公司
运营商所在国:
美国
制造商(研发单位):
太空探索技术公司
制造商所在国:
美国
使用方式:
暂无
Satellite Introduction
Starlink 计划是 SpaceX 推出的全球卫星互联网项目,通过发射低轨道卫星,为全球尤其是偏远地区提供高速、低延迟的互联网服务。自 2019 年起,Starlink 已部署数千颗卫星,旨在缩小全球数字鸿沟,推动互联网普及。该项目还为军事、航空等行业提供通信支持,带来广泛经济效益。
2D Orbit Map
3D Orbit Map
Orbit Altitude Analysis Chart
Orbit Inclination Analysis Chart
Orbit Comprehensive Analysis Chart
View Comprehensive Chart
Conjunction Data List
Event ID Objects TCA Miss Dist (km) Collision Risk Probability Collision Risk Index (CRI) Action
CDM_260906-154206-470406-647721
2026-09-06T
15:42:21+0000
2.608 km
极远距离
1.435172E-6 低风险 0.38
CDM_260906-024006-429506-647721
2026-09-06T
02:40:29+0000
2.947 km
极远距离
1.102207E-6 低风险 0.36